Location: Clair
(33.8067°N, 117.9845°W)
Time: 18:08:11
(UTC+00:00)

IGS 5A - Pass Details

Date: 14 February 2026
Orbit: 551 x 554 km, 97.4° (Epoch: 8 January)

Event Time Altitude Azimuth Distance (km) Brightness Sun altitude
Rises 13:47:04 0° 6° (N) 2,732 6.9 -11.0°
Reaches altitude 10° 13:49:14 10° 2° (N) 1,834 5.9 -10.6°
Maximum altitude 13:53:07 57° 284° (WNW) 655 3.4 -9.8°
Drops below altitude 10° 13:56:59 10° 206° (SSW) 1,822 5.8 -9.0°
Sets 13:59:07 0° 202° (SSW) 2,712 6.7 -8.6°
